Cozumel Airport, Mexico

7:59 PM EST on February 05, 2016 (GMT -0500)
Cozumel International

Weather History for MMCZ - February, 2012

Change the Weather History Date:

Tuesday, February 21, 2012

  Actual Average Record
Temperature  
Mean Temperature 72 °F -  
Max Temperature 82 °F 83 °F 87 °F (1999)
Min Temperature 62 °F 70 °F 57 °F (2015)
Cooling Degree Days 7    
Growing Degree Days 22 (Base 50)    
Moisture  
Dew Point 67 °F    
Average Humidity 89    
Maximum Humidity 100    
Minimum Humidity 62    
Precipitation  
Precipitation 0.00 in - - ()
Sea Level Pressure  
Sea Level Pressure 30.08 in    
Wind  
Wind Speed 3 mph ()    
Max Wind Speed 10 mph    
Max Gust Speed -    
Visibility 7.5 miles    
Events      
Averages and records for this station are not official NWS values.
T = Trace of Precipitation, MM = Missing Value Source: Averaged Metar Reports

Daily Weather History Graph

Daily Weather History Graph

Search for Another Location

Airport or City:

Trip Planner

Search our weather history database for the weather conditions in past years. The results will help you decide how hot, cold, wet, or windy it might be!

Date:

Astronomy

Feb. 21, 2012 Rise Set
Actual Time 6:13 AM CST 5:49 PM CST
Civil Twilight 5:51 AM CST 6:11 PM CST
Nautical Twilight 5:25 AM CST 6:37 PM CST
Astronomical Twilight 4:59 AM CST 7:03 PM CST
Moon 5:46 AM CST (2/21) 5:47 PM CST (2/21)
Length of Visible Light 12h 19m
Length of Day
11h 35m
Waning Crescent, 0% of the Moon is Illuminated
Feb 21
Waning Crescent
Feb 21
New
Feb 29
First Quarter
Mar 8
Full
Mar 14
Last Quarter

Hourly Weather History & Observations

Time (CST) Temp. Heat Index Dew Point Humidity Pressure Visibility Wind Dir Wind Speed Gust Speed Precip Events Conditions
12:45 AM 66.2 °F - 66.2 °F 100% 30.08 in 7.0 mi Calm Calm - N/A   Clear
2:20 AM 64.4 °F - 64.4 °F 100% 30.06 in 7.0 mi Calm Calm - N/A   Clear
2:41 AM 64.4 °F - 64.4 °F 100% 30.08 in 7.0 mi Calm Calm - N/A   Clear
3:58 AM 62.6 °F - 62.6 °F 100% 30.05 in 7.0 mi Calm Calm - N/A   Clear
4:51 AM 62.6 °F - 62.6 °F 100% 30.05 in 7.0 mi Calm Calm - N/A   Clear
5:40 AM 62.6 °F - 62.6 °F 100% 30.04 in 7.0 mi East 3.5 mph - N/A   Clear
6:40 AM 64.4 °F - 64.4 °F 100% 30.08 in 7.0 mi Calm Calm - N/A   Clear
7:43 AM 69.8 °F - 68.0 °F 94% 30.10 in 8.0 mi East 3.5 mph - N/A   Clear
8:41 AM 73.4 °F - 69.8 °F 88% 30.15 in 8.0 mi Calm Calm - N/A   Partly Cloudy
9:56 AM 75.2 °F - 71.6 °F 89% 30.13 in 8.0 mi ESE 9.2 mph - N/A   Scattered Clouds
10:45 AM 80.6 °F 83.2 °F 68.0 °F 65% 30.13 in 8.0 mi ESE 9.2 mph - N/A   Scattered Clouds
11:50 AM 80.6 °F 83.9 °F 69.8 °F 70% 30.09 in 8.0 mi East 9.2 mph - N/A   Mostly Cloudy
12:43 PM 80.6 °F 83.9 °F 69.8 °F 70% 30.09 in 8.0 mi East 9.2 mph - N/A   Scattered Clouds
1:54 PM 82.4 °F 85.4 °F 68.0 °F 62% 30.06 in 8.0 mi ESE 10.4 mph - N/A   Scattered Clouds
2:42 PM 80.6 °F 83.2 °F 68.0 °F 65% 30.06 in 8.0 mi SE 8.1 mph - N/A   Scattered Clouds
3:42 PM 78.8 °F - 69.8 °F 74% 30.03 in 8.0 mi ESE 10.4 mph - N/A   Scattered Clouds
4:44 PM 77.0 °F - 69.8 °F 78% 30.04 in 8.0 mi SE 6.9 mph - N/A   Scattered Clouds
5:40 PM 75.2 °F - 69.8 °F 83% 30.01 in 8.0 mi East 6.9 mph - N/A   Scattered Clouds
6:40 PM 71.6 °F - 69.8 °F 94% 30.05 in 7.0 mi East 3.5 mph - N/A   Scattered Clouds
7:42 PM 69.8 °F - 68.0 °F 94% 30.07 in 8.0 mi Calm Calm - N/A   Scattered Clouds
8:40 PM 68.0 °F - 68.0 °F 100% 30.12 in 8.0 mi Calm Calm - N/A   Partly Cloudy
9:49 PM 68.0 °F - 68.0 °F 100% 30.10 in 7.0 mi Calm Calm - N/A   Partly Cloudy
10:42 PM 68.0 °F - 68.0 °F 100% 30.10 in 7.0 mi Calm Calm - N/A   Partly Cloudy
11:44 PM 68.0 °F - 68.0 °F 100% 30.06 in 7.0 mi Calm Calm - N/A   Partly Cloudy